Temperature
16 17 17 18 18 18 19 22 24 25 25 25 25 25 25 26 24 21 21 21 20 22 22 21 20 18 18 17 17 17 16 16 16 16 16 16 15 15 15 15 14 14 14 14 14 14 15 15 15
16 16 17 18 17 18 20 22 23 25 25 24 24 24 24 25 23 21 21 20 19 21 21 21 20 18 17 17 17 16 16 16 16 16 16 16 15 15 15 15 15 15 14 14 14 15 15 15 14
15 16 17 17 17 18 20 23 24 25 24 23 24 24 25 24 23 21 20 19 18 19 20 20 19 18 17 17 17 16 16 16 16 16 16 16 16 15 15 15 15 15 14 14 14 15 15 14 14
15 15 17 17 18 19 21 23 24 24 24 24 24 25 24 22 21 20 20 19 18 18 19 19 18 17 17 17 16 16 16 16 16 16 16 16 15 15 15 15 15 15 14 14 15 15 15 14 14
14 16 15 16 18 20 22 23 24 24 24 24 24 24 22 21 21 20 19 19 18 17 18 18 18 17 16 16 16 16 16 16 16 16 16 16 16 15 15 15 15 15 14 14 15 15 14 14 14
14 15 15 15 17 20 22 23 24 24 24 24 24 24 21 20 20 19 19 19 18 18 17 18 17 17 16 16 16 16 16 16 16 16 16 16 16 15 15 15 15 15 14 14 14 15 14 14 14
14 15 15 17 18 19 21 23 23 23 23 24 24 24 21 19 19 19 18 19 18 17 17 17 17 16 16 16 16 16 16 16 16 16 16 16 16 16 15 15 15 15 15 15 15 15 15 14 14
14 15 16 17 18 19 22 23 23 23 23 24 24 23 21 19 19 18 18 18 18 17 17 17 16 16 16 16 16 16 16 16 16 16 17 16 16 16 16 15 15 15 15 15 15 15 15 15 14
14 14 15 17 18 19 22 22 23 22 22 23 23 22 20 19 18 18 18 18 17 17 16 16 16 16 16 16 16 16 16 16 16 16 17 17 16 16 16 16 15 15 15 15 15 15 15 15 14
14 13 15 18 19 20 21 21 22 21 21 22 22 21 20 19 18 18 17 17 17 17 16 16 16 16 16 16 16 16 16 16 16 17 17 17 16 16 16 16 16 15 15 15 15 15 15 15 14
14 14 16 18 19 19 20 20 20 21 20 21 22 22 20 19 18 17 17 17 17 16 16 16 16 16 15 15 16 16 16 16 16 16 16 16 15 15 16 16 16 16 15 15 15 15 15 14 14
14 15 16 17 18 17 18 19 19 20 20 21 21 21 21 19 18 18 17 16 16 16 16 16 16 15 15 15 15 15 15 16 16 15 16 15 15 15 16 16 16 16 16 15 15 15 15 14 13
14 15 16 17 16 17 17 18 18 19 20 19 19 20 20 20 19 18 17 17 16 16 16 16 16 15 15 15 15 15 15 15 15 15 15 15 15 15 16 16 16 16 15 15 15 15 14 14 13
14 15 16 16 16 16 16 17 17 18 19 19 19 19 19 19 19 18 18 17 16 16 15 15 16 15 15 15 15 15 15 15 15 15 15 15 15 15 15 15 15 15 15 15 15 15 14 14 13
14 14 14 15 15 15 16 15 16 17 18 18 18 19 19 19 19 18 18 17 16 16 15 15 15 15 15 15 15 15 15 15 15 15 15 15 15 15 15 15 15 15 15 14 14 14 13 13 13
13 12 12 14 15 15 14 13 16 17 17 18 18 18 19 18 18 18 18 17 17 16 15 15 15 15 15 15 15 15 15 15 15 15 15 16 15 15 15 15 15 15 15 14 14 14 13 13 13
11 11 11 13 15 15 14 13 16 17 17 17 18 18 18 18 18 18 18 17 17 16 16 15 15 15 15 15 15 15 15 15 15 15 15 16 16 15 15 15 15 14 14 14 14 13 13 13 13
10 11 12 13 14 14 14 14 15 17 17 17 17 18 18 18 18 18 17 17 17 16 16 16 15 15 15 15 15 15 15 15 15 15 15 15 15 15 15 15 15 14 14 14 13 13 13 13 13
13 13 13 14 15 14 14 14 15 16 16 16 17 17 18 18 18 18 17 17 16 16 16 16 16 15 15 15 15 15 15 15 15 15 15 15 15 15 15 15 14 14 14 14 13 13 13 12 12
12 12 13 14 15 14 13 14 15 16 16 16 17 17 17 18 17 17 17 16 16 16 16 16 16 16 15 15 15 15 15 15 16 16 16 15 15 15 15 14 14 14 13 13 13 13 12 12 12
11 12 13 13 13 14 13 13 14 15 16 16 16 16 16 17 17 16 16 15 15 15 15 15 15 15 15 15 15 15 15 15 15 16 16 16 15 15 14 14 14 13 13 13 13 12 12 12 12
11 13 13 13 12 11 12 11 14 14 14 14 15 15 15 15 15 15 15 14 14 14 15 15 15 15 15 15 15 15 15 15 15 15 16 16 15 15 14 14 13 13 13 12 12 12 12 12 11
11 12 12 12 12 11 12 11 13 14 14 14 14 15 15 14 14 14 14 13 13 13 14 14 14 14 15 15 14 14 14 14 14 14 14 14 14 14 14 13 13 13 12 12 12 12 11 11 11
11 11 11 11 10 9 11 11 12 13 14 14 14 14 14 13 13 12 12 12 12 12 13 13 13 14 14 14 14 14 14 14 14 13 13 13 13 13 13 13 12 12 12 12 11 11 11 11 11
10 9 8 8 8 9 12 12 13 14 14 13 13 13 13 12 12 12 11 11 11 11 12 12 13 13 13 13 13 13 13 13 13 13 13 13 12 12 12 12 12 12 11 11 11 11 11 11 11
9 9 9 9 9 10 12 12 13 13 13 14 13 13 12 12 12 11 11 10 10 11 11 11 12 12 12 12 12 12 12 12 12 12 12 12 12 12 12 11 11 11 11 11 11 10 10 10 10
9 9 10 9 10 10 11 12 11 13 12 12 12 12 12 12 11 11 10 10 10 10 10 11 11 11 11 11 11 12 12 11 11 11 11 11 11 11 11 11 11 10 10 10 10 10 10 10 10
9 10 9 8 9 10 11 12 11 10 11 11 11 12 12 11 11 10 9 9 9 9 10 10 10 10 10 10 11 11 10 10 10 10 10 10 10 10 10 10 10 10 9 9 9 9 9 9 9
8 9 9 9 10 9 10 11 13 11 11 11 11 12 12 11 10 10 9 9 9 9 9 9 9 9 9 9 9 9 9 9 9 9 9 9 9 9 9 9 9 9 9 8 8 8 8 8 8
9 9 9 8 9 10 9 10 12 12 12 11 12 12 11 11 10 9 9 8 8 8 8 8 8 8 8 8 8 8 8 8 8 8 8 8 8 8 8 8 8 8 8 7 7 7 7 7 7
Wind_Speed
10 12 8 3 4 6 11 11 10 1 3 5 7 6 8 6 4 6 5 9 18 18 20 21 21 20 19 18 18 17 16 15 14 13 12 11 10 9 9 9 10 10 12 13 14 14 14 14 13
10 9 5 3 5 9 10 12 10 4 5 7 3 4 6 3 8 8 5 12 17 18 19 19 21 20 19 19 18 17 16 15 14 13 12 10 9 9 9 9 10 12 13 14 15 14 14 13 13
9 8 4 4 8 11 11 10 9 6 8 4 3 6 5 2 8 7 8 12 16 15 18 20 21 20 20 20 19 17 16 14 13 12 11 10 9 9 10 11 12 14 14 15 14 14 13 12 12
5 3 4 8 14 15 16 10 2 3 6 6 4 4 4 7 5 8 10 12 15 15 18 20 20 20 20 19 18 17 16 15 13 12 12 11 10 10 11 12 14 14 14 14 13 13 12 11 10
4 3 6 11 16 15 15 12 3 2 4 7 6 5 6 6 9 10 9 11 13 15 18 19 20 20 20 19 18 17 16 15 14 13 12 11 11 12 13 14 14 14 14 13 12 12 11 10 9
5 5 9 15 17 17 15 11 6 6 6 6 5 6 6 7 9 9 9 9 12 15 16 18 19 19 19 19 18 17 16 15 13 12 12 12 12 13 14 13 14 13 13 12 11 11 10 9 8
7 7 13 16 17 18 17 12 9 7 7 6 4 4 7 9 8 9 9 9 13 15 14 14 16 17 19 18 18 17 16 15 13 12 12 13 13 13 13 13 13 13 12 11 10 10 9 8 7
7 5 14 16 17 17 14 12 10 7 7 5 2 2 6 9 7 8 7 8 12 13 13 11 14 15 15 16 17 17 16 15 14 13 13 14 13 13 13 13 13 12 12 11 10 9 8 8 7
7 8 14 16 16 14 10 9 8 3 5 7 2 5 11 10 8 8 5 6 9 10 11 10 11 13 15 15 15 17 16 15 14 13 15 14 12 12 12 13 13 12 11 11 10 9 8 8 7
7 11 18 13 10 9 8 6 5 5 7 9 5 7 14 11 9 8 6 5 7 8 9 9 10 10 13 13 14 13 13 14 13 13 14 12 12 13 12 15 14 13 12 11 10 9 9 9 8
8 12 14 13 6 5 3 3 2 5 7 9 8 8 11 12 10 10 9 7 6 6 6 7 8 8 8 8 11 10 11 13 13 15 16 14 12 12 13 12 12 12 12 10 10 9 10 10 10
10 13 13 9 2 3 3 1 3 7 6 2 2 2 8 10 10 10 10 11 9 8 6 5 5 7 7 9 8 8 8 9 9 13 17 13 7 8 10 10 12 12 11 11 11 10 11 10 9
17 12 10 7 2 3 4 4 4 7 3 3 5 5 2 5 8 8 8 9 10 10 9 6 5 6 5 6 5 6 6 8 10 12 15 13 7 5 7 8 11 12 12 11 9 9 8 7 7
12 12 8 5 4 3 4 5 5 7 4 2 2 2 3 4 5 7 8 8 8 9 10 8 7 5 5 5 5 4 6 8 9 10 11 12 11 8 6 5 7 9 11 12 10 8 6 5 4
10 9 8 7 7 5 3 8 12 10 6 7 7 6 5 5 3 5 6 7 8 8 9 10 9 8 7 6 6 5 5 7 6 9 12 12 11 11 8 4 4 8 11 11 9 8 6 4 3
8 8 9 11 12 10 7 12 12 11 11 10 9 8 7 7 6 5 6 6 7 8 9 10 9 9 8 7 6 4 6 6 6 9 12 13 13 12 9 4 5 10 11 8 4 4 4 4 4
8 11 14 12 15 12 11 9 9 11 13 12 10 10 8 7 8 6 5 6 6 7 8 9 9 9 9 8 5 4 5 5 6 8 9 12 14 14 10 5 6 10 7 5 5 5 5 4 5
14 13 15 14 13 14 14 11 9 7 8 9 9 10 9 8 7 6 5 5 5 5 6 7 8 9 8 7 5 4 4 4 5 6 8 11 13 14 11 7 8 9 5 6 6 6 5 5 5
10 14 14 13 11 14 14 14 12 10 8 8 9 9 9 8 6 5 5 5 5 5 5 5 7 8 7 6 6 6 6 5 5 5 8 11 12 13 11 5 6 6 7 8 8 6 6 5 4
10 11 12 8 9 9 10 13 12 11 11 10 9 9 8 6 5 4 4 3 3 4 3 3 4 5 6 5 5 5 4 4 5 5 6 10 10 11 10 8 8 8 7 8 9 7 6 5 6
12 10 9 7 6 4 5 9 13 11 10 9 8 7 6 4 5 5 5 4 3 2 2 1 2 2 3 4 3 2 3 3 4 5 7 8 10 10 10 9 7 8 8 8 9 9 10 7 7
11 7 5 7 7 5 8 5 11 14 12 11 10 8 7 4 2 2 3 4 4 2 2 1 1 1 1 2 3 4 4 5 6 5 6 7 9 10 11 10 9 9 8 9 9 10 8 8 7
4 2 3 5 5 4 7 6 6 11 12 13 10 8 6 4 3 3 4 4 4 4 3 2 2 2 1 0 2 3 4 5 4 4 5 6 7 9 10 10 9 10 9 9 9 9 9 9 8
4 4 3 1 2 5 9 8 5 7 11 11 9 7 6 5 5 5 4 4 4 4 3 2 2 2 2 2 2 2 3 4 4 5 5 5 4 5 8 8 8 9 9 9 9 9 10 10 9
5 6 4 4 5 6 9 7 5 5 8 10 10 8 7 6 6 6 6 5 5 4 3 1 2 2 2 2 2 3 3 4 5 5 5 5 4 3 5 6 7 7 7 7 7 8 8 9 9
8 6 2 4 5 4 5 7 2 7 9 10 9 8 6 6 5 6 6 5 5 5 3 3 2 2 3 3 3 3 3 2 3 4 4 4 3 3 2 3 4 5 5 5 6 6 6 5 7
6 5 1 1 2 2 5 5 5 6 8 9 9 8 7 6 6 6 6 6 5 5 5 4 4 4 4 5 4 4 4 3 3 4 3 3 2 2 1 1 1 2 2 3 4 4 4 4 4
0 2 3 2 2 3 7 8 8 12 10 9 9 8 7 6 6 6 6 5 5 5 4 4 4 5 5 5 4 4 5 5 4 3 3 3 2 2 1 1 0 1 1 1 2 2 2 3 3
4 3 4 3 3 2 2 1 3 13 11 10 8 7 7 6 6 5 5 5 4 4 4 4 5 5 5 5 5 5 5 6 5 4 4 4 3 3 2 2 1 1 1 2 2 2 3 4 4
4 5 5 3 3 3 2 1 3 8 9 9 7 7 6 6 5 5 5 4 4 4 4 4 5 5 5 5 5 5 6 6 7 7 7 6 5 5 5 5 5 5 5 5 4 4 5 5 5
Wind_Direction
268 260 259 254 250 231 239 245 259 299 35 36 23 344 325 320 22 97 190 121 121 131 141 145 142 142 141 137 133 130 128 127 127 125 121 117 113 111 110 108 109 108 107 101 97 94 92 90 87
270 249 254 246 233 232 233 235 247 196 92 59 26 287 288 310 90 110 124 114 126 131 142 146 142 142 141 138 135 132 130 129 126 123 120 117 114 114 111 112 112 111 109 105 101 98 95 93 89
262 249 229 228 231 234 238 225 220 170 113 122 223 221 238 22 78 103 118 126 127 132 143 139 142 142 141 139 137 136 134 131 127 123 120 117 114 114 114 112 113 110 108 107 105 101 98 95 91
228 214 242 234 233 233 250 268 290 138 141 161 240 225 118 55 51 99 124 133 130 134 131 138 140 141 140 140 139 138 136 133 130 125 121 117 113 113 114 114 113 112 113 113 110 106 102 98 94
220 195 214 230 236 238 241 249 263 210 184 171 213 256 94 77 84 107 139 140 135 128 128 140 139 140 141 141 141 140 137 136 133 128 123 119 117 116 115 116 116 116 116 116 115 111 106 102 98
199 206 211 221 231 239 246 244 221 214 205 177 196 248 103 108 109 131 140 139 127 122 129 138 138 140 142 143 143 142 139 138 135 133 128 122 120 121 122 120 122 121 120 118 116 115 110 107 103
209 208 222 222 227 232 236 240 228 212 231 201 173 255 117 109 116 133 138 140 121 122 128 137 142 142 144 144 145 143 140 140 139 137 131 125 122 124 126 126 128 126 124 122 120 120 118 115 111
221 226 230 229 231 232 228 229 229 212 236 256 190 256 114 117 128 124 136 130 122 128 136 144 148 148 148 147 147 144 143 143 141 137 131 129 128 130 133 132 132 130 128 128 128 128 127 125 124
231 230 227 223 231 241 236 219 215 191 263 271 222 95 104 116 115 112 113 109 123 133 141 149 151 155 156 155 152 146 147 148 142 140 141 143 146 145 148 139 138 136 134 135 137 138 138 139 143
207 222 226 229 239 253 247 222 197 179 225 256 235 127 121 129 135 135 139 138 135 141 144 151 157 157 161 158 151 155 155 156 161 158 161 175 176 167 155 145 146 146 145 146 150 154 160 166 170
204 225 229 237 273 320 295 183 198 213 217 234 225 175 143 146 157 161 166 169 162 155 146 153 159 157 155 143 157 165 167 169 184 172 178 197 181 149 138 145 150 153 157 161 163 172 195 207 188
218 228 236 246 283 326 318 250 221 237 242 283 350 140 152 159 171 175 174 172 173 173 169 168 167 161 157 151 164 166 168 171 186 179 183 194 167 152 157 162 170 174 183 178 176 196 213 214 191
225 228 225 231 176 269 272 261 255 253 251 42 36 22 49 179 179 178 177 169 169 174 173 178 186 176 167 156 165 171 170 172 185 179 186 185 160 163 169 176 176 184 187 181 188 204 202 202 198
219 227 228 208 173 222 246 260 252 255 246 206 201 225 257 245 199 173 173 171 173 171 171 175 190 193 185 170 166 173 174 175 181 175 187 185 172 177 175 181 176 185 187 183 192 204 192 193 194
220 212 214 213 206 204 225 248 239 246 250 236 226 223 225 246 226 190 177 173 175 174 175 178 187 193 196 191 180 183 186 179 183 176 190 195 189 184 180 181 176 185 190 188 190 201 194 183 183
206 204 207 208 206 203 202 237 232 227 234 238 235 233 219 215 221 209 186 177 179 176 183 185 188 190 195 198 192 186 193 190 188 184 189 196 201 192 183 182 185 188 189 188 179 188 184 182 179
190 202 205 202 200 197 201 238 240 213 216 226 231 238 235 219 208 206 197 180 181 179 185 186 184 188 194 196 196 196 198 199 192 192 193 198 202 200 189 189 192 191 187 182 185 187 180 183 189
190 199 204 204 191 200 209 224 244 227 208 221 229 233 233 227 213 191 188 185 181 182 187 188 185 188 189 188 196 200 206 207 204 201 202 202 203 203 195 194 197 193 188 189 185 187 190 185 183
201 204 209 208 192 197 215 225 229 225 207 223 235 236 230 220 205 181 175 177 175 183 195 195 189 191 186 185 191 197 207 208 210 215 215 211 207 205 201 198 199 197 197 193 187 182 192 196 169
238 222 213 198 187 191 218 230 230 224 209 210 225 235 230 214 191 176 163 161 166 172 181 203 202 192 187 187 190 193 194 207 210 208 220 224 218 212 209 205 204 202 201 198 195 188 186 193 177
228 231 215 185 149 197 240 244 229 222 212 211 217 233 248 226 199 177 167 155 134 129 151 201 229 207 185 175 176 182 193 205 211 214 217 221 225 225 218 213 210 207 205 208 204 196 191 196 196
216 224 221 180 162 204 205 243 223 207 204 210 213 214 221 219 195 157 135 126 120 99 61 21 325 301 190 173 177 188 205 216 222 222 221 217 219 224 224 219 214 215 212 213 211 205 202 190 197
190 176 183 191 202 243 201 226 258 183 193 200 198 195 187 174 153 118 97 95 90 80 54 18 350 340 346 286 205 207 226 232 240 241 238 229 223 222 224 221 217 219 218 217 214 210 208 204 199
137 125 115 172 218 241 215 210 249 191 188 176 165 152 144 135 124 118 113 112 103 94 69 31 6 355 356 344 310 253 248 250 259 263 257 249 239 228 225 225 224 223 220 219 218 216 214 214 209
165 151 153 172 201 232 208 206 247 165 152 144 140 135 132 135 141 141 139 134 119 108 95 63 38 8 359 342 320 298 276 263 254 257 260 263 255 243 234 228 228 227 226 223 220 217 219 216 212
187 192 181 182 192 204 188 213 134 94 101 111 118 122 130 139 130 123 116 109 105 97 80 58 43 25 17 6 343 334 323 297 282 276 273 271 265 255 254 238 233 230 223 224 220 220 219 214 214
170 207 289 332 259 195 204 184 103 116 119 125 133 140 148 137 124 118 108 96 88 80 65 50 39 34 27 13 3 358 351 339 313 303 299 292 292 294 290 272 245 233 223 217 208 214 209 199 202
237 168 157 189 215 238 203 189 179 169 167 162 157 155 143 131 123 114 104 93 83 76 64 49 41 39 29 18 12 10 2 354 345 344 336 328 327 337 336 317 239 209 193 181 175 176 166 157 155
169 182 203 222 274 272 237 135 49 164 164 162 153 137 127 124 119 112 105 96 89 77 63 51 41 39 30 25 23 19 14 7 3 7 9 14 18 22 35 42 60 72 73 96 115 128 132 139 127
206 202 192 195 242 230 266 348 0 137 141 141 131 120 120 119 113 112 111 103 91 77 63 52 43 41 32 27 33 30 24 23 28 30 27 31 38 41 45 53 60 63 63 66 80 92 97 109 113
Height
1510 1513 1515 1517 1518 1517 1513 1501 1491 1489 1490 1492 1494 1495 1495 1495 1499 1510 1510 1509 1508 1509 1513 1516 1520 1522 1526 1529 1531 1534 1536 1538 1540 1541 1542 1543 1544 1544 1545 1546 1547 1548 1549 1550 1551 1551 1551 1551 1552
1508 1512 1516 1516 1516 1519 1509 1497 1492 1489 1491 1495 1498 1499 1498 1497 1500 1504 1507 1509 1508 1510 1513 1517 1520 1523 1526 1529 1532 1534 1537 1539 1540 1541 1542 1543 1544 1544 1545 1546 1547 1549 1550 1552 1552 1553 1553 1553 1554
1507 1511 1515 1512 1512 1511 1503 1490 1488 1487 1492 1497 1499 1499 1499 1499 1501 1504 1507 1509 1509 1510 1514 1517 1520 1523 1526 1529 1532 1535 1537 1539 1540 1542 1543 1543 1544 1545 1546 1547 1548 1550 1552 1553 1554 1554 1555 1556 1556
1507 1511 1512 1510 1507 1501 1495 1488 1485 1487 1492 1496 1498 1498 1498 1501 1502 1504 1506 1509 1510 1512 1514 1518 1521 1524 1527 1530 1533 1535 1537 1539 1540 1542 1543 1544 1544 1545 1547 1548 1549 1551 1553 1554 1555 1556 1557 1557 1558
1505 1508 1510 1508 1502 1495 1490 1488 1488 1489 1491 1494 1497 1496 1498 1501 1502 1504 1507 1510 1512 1513 1514 1518 1521 1524 1528 1530 1533 1535 1537 1539 1540 1542 1543 1544 1545 1546 1547 1549 1551 1552 1554 1556 1557 1557 1558 1559 1560
1503 1503 1506 1506 1500 1493 1488 1487 1488 1490 1491 1493 1496 1496 1499 1501 1502 1505 1508 1511 1513 1513 1515 1519 1522 1525 1528 1531 1533 1535 1537 1539 1540 1542 1543 1544 1545 1547 1548 1550 1552 1553 1555 1556 1558 1559 1560 1560 1562
1499 1498 1497 1496 1496 1491 1487 1486 1487 1489 1490 1492 1495 1496 1499 1500 1503 1506 1509 1512 1513 1514 1516 1519 1522 1525 1528 1531 1533 1535 1537 1539 1540 1542 1543 1544 1546 1547 1549 1550 1552 1554 1556 1557 1558 1559 1560 1561 1563
1494 1494 1493 1492 1490 1487 1483 1484 1485 1487 1490 1492 1494 1495 1498 1500 1503 1506 1509 1512 1514 1515 1517 1519 1522 1525 1528 1531 1533 1535 1537 1538 1540 1542 1543 1545 1546 1548 1549 1551 1553 1554 1556 1557 1559 1560 1561 1562 1563
1491 1494 1490 1487 1486 1483 1480 1481 1484 1487 1490 1492 1494 1496 1499 1500 1503 1506 1509 1512 1514 1516 1518 1520 1522 1525 1528 1530 1532 1534 1536 1538 1540 1541 1543 1545 1546 1548 1549 1551 1553 1554 1556 1557 1559 1560 1561 1562 1563
1488 1488 1483 1480 1480 1480 1479 1481 1484 1487 1490 1492 1494 1496 1497 1500 1503 1505 1508 1510 1513 1516 1519 1521 1523 1525 1528 1529 1531 1534 1535 1537 1539 1541 1542 1544 1546 1547 1549 1550 1552 1554 1556 1557 1558 1560 1561 1562 1563
1482 1480 1478 1479 1479 1480 1479 1481 1483 1487 1490 1491 1492 1494 1497 1499 1502 1505 1507 1510 1513 1515 1518 1520 1523 1525 1528 1529 1531 1532 1534 1536 1538 1540 1542 1544 1545 1547 1548 1550 1551 1553 1555 1556 1558 1559 1560 1561 1562
1477 1476 1478 1479 1480 1481 1482 1482 1484 1486 1489 1490 1491 1492 1494 1498 1501 1504 1506 1508 1511 1514 1516 1519 1522 1525 1527 1528 1530 1532 1533 1535 1537 1539 1541 1543 1544 1546 1547 1549 1550 1552 1553 1555 1556 1558 1559 1560 1561
1475 1475 1477 1479 1481 1482 1483 1484 1485 1486 1488 1489 1490 1491 1494 1497 1499 1502 1504 1507 1509 1512 1514 1517 1520 1523 1525 1527 1529 1531 1533 1534 1536 1538 1540 1542 1543 1545 1546 1547 1548 1550 1551 1553 1555 1556 1557 1559 1560
1473 1475 1476 1478 1480 1483 1484 1485 1485 1485 1487 1489 1490 1492 1494 1496 1498 1500 1503 1505 1508 1510 1512 1515 1518 1520 1523 1525 1527 1530 1532 1533 1535 1537 1538 1540 1541 1543 1544 1546 1547 1548 1550 1551 1553 1554 1556 1557 1558
1471 1474 1477 1478 1481 1483 1486 1487 1484 1485 1487 1488 1490 1492 1493 1495 1497 1499 1501 1503 1505 1508 1510 1512 1515 1518 1520 1523 1525 1527 1530 1531 1533 1534 1536 1538 1539 1541 1542 1543 1545 1546 1548 1549 1550 1552 1553 1554 1555
1471 1476 1480 1477 1479 1482 1488 1488 1481 1484 1485 1486 1488 1490 1492 1493 1495 1497 1499 1501 1503 1505 1508 1510 1512 1515 1517 1520 1523 1525 1527 1529 1530 1532 1533 1535 1537 1538 1539 1541 1542 1543 1545 1546 1548 1549 1550 1551 1552
1473 1476 1477 1475 1474 1477 1483 1483 1479 1479 1481 1483 1485 1487 1489 1490 1493 1495 1497 1498 1500 1503 1505 1507 1509 1511 1514 1517 1520 1522 1524 1526 1527 1529 1530 1532 1533 1535 1536 1537 1539 1540 1541 1543 1544 1545 1547 1548 1549
1468 1470 1471 1472 1469 1473 1478 1478 1477 1475 1476 1478 1481 1483 1485 1487 1489 1491 1493 1495 1497 1500 1502 1504 1506 1509 1511 1514 1516 1518 1520 1522 1524 1525 1527 1528 1529 1531 1532 1533 1535 1536 1537 1538 1539 1541 1542 1544 1545
1459 1464 1466 1466 1464 1470 1473 1475 1474 1473 1474 1476 1478 1479 1481 1483 1485 1487 1489 1492 1494 1496 1499 1501 1503 1505 1507 1509 1511 1513 1515 1518 1520 1521 1523 1524 1525 1527 1528 1529 1530 1531 1532 1534 1535 1536 1538 1539 1541
1459 1461 1462 1462 1462 1467 1471 1471 1469 1468 1470 1472 1474 1476 1477 1479 1481 1483 1486 1488 1490 1492 1495 1497 1499 1501 1503 1505 1507 1509 1511 1513 1515 1517 1518 1520 1521 1522 1523 1524 1525 1526 1527 1529 1530 1531 1532 1533 1535
1460 1461 1460 1462 1464 1467 1471 1472 1466 1463 1465 1467 1470 1472 1474 1476 1478 1480 1482 1484 1486 1488 1490 1493 1495 1497 1499 1501 1503 1505 1507 1508 1510 1511 1513 1514 1515 1516 1517 1518 1519 1520 1522 1522 1524 1525 1526 1527 1529
1461 1457 1458 1461 1469 1473 1473 1478 1461 1458 1460 1462 1465 1468 1470 1473 1475 1477 1479 1480 1482 1484 1486 1488 1491 1493 1495 1497 1498 1500 1501 1502 1504 1506 1507 1508 1509 1510 1511 1512 1513 1514 1515 1516 1518 1519 1520 1521 1521
1459 1457 1460 1463 1468 1471 1469 1475 1459 1449 1457 1458 1461 1464 1467 1470 1472 1474 1475 1477 1479 1480 1482 1484 1486 1488 1490 1492 1493 1495 1496 1497 1499 1500 1501 1502 1503 1504 1505 1506 1507 1508 1509 1510 1511 1512 1513 1514 1514
1459 1462 1466 1468 1472 1479 1468 1470 1460 1450 1450 1453 1457 1461 1464 1467 1470 1471 1473 1475 1476 1477 1479 1481 1482 1484 1486 1487 1489 1490 1491 1492 1493 1494 1495 1496 1497 1497 1498 1499 1500 1501 1502 1503 1504 1505 1506 1507 1508
1462 1468 1475 1478 1480 1475 1458 1460 1455 1443 1443 1449 1455 1460 1464 1466 1468 1470 1472 1473 1473 1474 1476 1477 1479 1480 1481 1483 1484 1485 1486 1487 1487 1488 1489 1490 1490 1491 1492 1493 1493 1494 1495 1496 1498 1499 1499 1500 1501
1461 1464 1468 1471 1473 1464 1454 1457 1450 1445 1446 1450 1456 1460 1464 1466 1468 1469 1470 1471 1472 1472 1474 1475 1476 1477 1478 1478 1479 1480 1481 1481 1482 1482 1483 1483 1484 1485 1485 1486 1486 1487 1488 1489 1490 1491 1492 1493 1494
1461 1463 1461 1466 1463 1464 1459 1450 1454 1449 1451 1454 1457 1461 1464 1466 1467 1469 1469 1470 1471 1471 1472 1473 1473 1474 1474 1475 1475 1476 1476 1476 1476 1477 1477 1477 1478 1478 1479 1479 1480 1481 1482 1482 1483 1484 1484 1486 1486
1458 1458 1464 1467 1465 1462 1452 1449 1452 1453 1454 1455 1458 1460 1463 1465 1467 1468 1468 1469 1469 1470 1470 1471 1471 1471 1471 1472 1472 1472 1472 1472 1472 1472 1472 1472 1472 1472 1472 1473 1473 1474 1475 1476 1477 1477 1478 1479 1479
1461 1461 1461 1461 1459 1462 1457 1453 1441 1445 1449 1453 1456 1459 1462 1464 1466 1467 1467 1468 1468 1468 1468 1469 1469 1469 1469 1469 1468 1468 1468 1468 1468 1467 1467 1467 1467 1467 1467 1467 1468 1468 1469 1470 1470 1471 1472 1472 1473
1455 1456 1458 1463 1460 1457 1461 1459 1442 1444 1448 1452 1456 1459 1461 1463 1464 1466 1466 1467 1467 1467 1467 1467 1466 1466 1466 1466 1465 1465 1465 1464 1464 1463 1463 1463 1463 1463 1463 1463 1463 1463 1464 1465 1465 1466 1467 1467 1468